星链-35421(STARLINK-35421)

导读

STARLINK-35421是美国SpaceX星链互联网星座中的一员,于2025年10月19日发射升空。它延续了星链星座标准化设计与部署理念,承担低轨卫星互联网服务任务,为全球提供高速宽带接入,尤其覆盖偏远地区与传统网络难以通达区域,进一步扩充星链星座规模,支撑星座全球服务能力提升。

基本信息
目录编号:
66062
目录名称:
STARLINK-35421
国际标识:
2025-235E
轨道中心:
EARTH
卫星名称:
星链-35421
卫星全名:
星链-35421(STARLINK-35421)
卫星状态:
在轨 (已飞行237 天)
发射日期:
2025-10-19 UTC
国别 :
美国 (US)
星等 :
--
轨道信息
数据来源 国际轨道数据
星历时间: 2026-06-13T14:00:02+0800
6小时前
查看轨道信息
半长轴: 6840.892km
偏心率: 0.0001039
轨道倾角: 53.160°
近地点辐角 91.474°
升交点赤经 161.441°
平近点角 197.664°
近地点: 462.044km
远地点: 463.466km
周期: 93.849分钟
每日圈数: 15.343829
详细信息
固有亮度:
5
最大亮度:
2.5
卫星平台:
Starlink V1.0
覆盖范围:
全球
运营商:
太空探索技术公司
运营商所在国:
美国
制造商(研发单位):
太空探索技术公司
制造商所在国:
美国
使用方式:
暂无
卫星简介
Starlink 计划是 SpaceX 推出的全球卫星互联网项目,通过发射低轨道卫星,为全球尤其是偏远地区提供高速、低延迟的互联网服务。自 2019 年起,Starlink 已部署数千颗卫星,旨在缩小全球数字鸿沟,推动互联网普及。该项目还为军事、航空等行业提供通信支持,带来广泛经济效益。
2D轨道图
3D轨道图
轨道高度分析图
轨道倾角分析图
轨道综合分析图
查看轨道综合分析图